Location: Mapua
(41.2500°S, 173.1000°E)
Time: 17:50:59
(UTC+13:00)

X-37B - Visible Passes

Search period start: 23 January 2021 00:00
Search period end: 02 February 2021 00:00
Orbit: 385 x 390 km, 45.0° (Epoch: 20 January)

Date Brightness Start Highest point End Pass type
(mag) Time Alt. Az. Time Alt. Az. Time Alt. Az.
23 Jan 3.2 05:21:00 10° N 05:22:40 13° NE 05:24:19 10° ENE visible
25 Jan 2.3 05:00:59 18° N 05:02:20 24° NE 05:05:02 10° E visible
26 Jan 3.3 04:05:11 12° ENE 04:05:11 12° ENE 04:05:52 10° ENE visible
26 Jan 0.7 05:37:28 12° WNW 05:40:23 73° NNE 05:43:39 10° ESE visible
27 Jan 1.2 04:41:38 39° N 04:42:04 42° NNE 04:45:12 10° ESE visible
28 Jan 3.3 03:45:45 15° E 03:45:45 15° E 03:46:33 10° E visible
28 Jan 0.8 05:18:02 18° W 05:20:17 72° SSW 05:23:33 10° ESE visible
29 Jan 0.7 04:22:09 69° ENE 04:22:09 69° ENE 04:25:10 10° ESE visible
29 Jan 1.7 05:55:34 10° W 05:58:42 42° S 06:01:51 10° ESE visible
30 Jan 3.6 03:26:15 13° E 03:26:15 13° E 03:26:43 10° ESE visible
30 Jan 1.3 04:58:31 24° W 05:00:14 51° SSW 05:03:27 10° ESE visible
31 Jan 1.7 04:02:38 45° SE 04:02:38 45° SE 04:05:04 10° ESE visible
31 Jan 1.9 05:35:36 10° WSW 05:38:43 40° S 05:41:50 10° ESE visible
01 Feb 1.7 04:39:03 29° SW 04:40:13 42° S 04:43:22 10° ESE visible
